Location: Sobotiste
(48.7170°N, 17.4000°E)
Time: 07:19:43
(UTC+02:00)

CAS-6 - Pass Details

Date: 20 March 2026
Orbit: 601 x 618 km, 97.8° (Epoch: 15 April)

Event Time Altitude Azimuth Distance (km) Brightness Sun altitude
Exits shadow 21:55:45 20° 337° (NNW) 1,432 ? -34.5°
Drops below altitude 10° 21:57:05 10° 341° (NNW) 1,960 ? -34.7°
Sets 21:59:17 0° 345° (NNW) 2,871 ? -34.9°
